Overview Statistics Trail Chart Weather Telemetry Raw packets
 

This is the latest recevied weather packets stored in our database for station/object VE8SKI. If no packets are shown the sender has not sent any weather packets the latest 10 day(s).

<< 50 51 52 53 54 55 56 >>
Time Temp. Humidity Pressure Rain* Wind** Luminosity Snow
1777770109 3.89° C 69% 1007.3 hPa 0 mm 2.24 m/s, 97° - -
1777769810 3.89° C 69% 1007.3 hPa 0 mm 2.68 m/s, 100° - -
1777769508 3.89° C 69% 1007.3 hPa 0 mm 1.79 m/s, 76° - -
1777769208 3.89° C 68% 1006.9 hPa 0 mm 2.68 m/s, 35° - -
1777768909 4.44° C 68% 1006.5 hPa 0 mm 2.68 m/s, 65° - -
1777768609 4.44° C 67% 1006.2 hPa 0 mm 2.24 m/s, 83° - -
1777768309 4.44° C 67% 1005.9 hPa 0 mm 3.13 m/s, 44° - -
1777768010 4.44° C 66% 1006.1 hPa 0 mm 1.79 m/s, 155° - -
1777767707 4.44° C 66% 1006.3 hPa 0 mm 2.68 m/s, 100° - -
1777767408 5° C 65% 1006.4 hPa 0 mm 2.68 m/s, 162° - -
1777767108 5° C 65% 1006.5 hPa 0 mm 1.79 m/s, 141° - -
1777766809 5° C 64% 1006.4 hPa 0 mm 2.24 m/s, 115° - -
1777766509 5° C 64% 1006.5 hPa 0 mm 1.34 m/s, 63° - -
1777766210 5° C 63% 1006.2 hPa 0 mm 2.24 m/s, 180° - -
1777765907 5.56° C 63% 1006.1 hPa 0 mm 1.79 m/s, 63° - -
1777765608 5.56° C 62% 1006.1 hPa 0 mm 2.24 m/s, 90° - -
1777765308 5.56° C 62% 1006.2 hPa 0 mm 1.79 m/s, 117° - -
1777765008 5.56° C 61% 1006.3 hPa 0 mm 1.79 m/s, 49° - -
1777764709 6.11° C 61% 1006.4 hPa 0 mm 2.24 m/s, 93° - -
1777764409 6.11° C 60% 1006.4 hPa 0 mm 1.79 m/s, 107° - -
1777764107 6.67° C 59% 1006.4 hPa 0 mm 1.79 m/s, 174° - -
1777763808 6.67° C 59% 1006.5 hPa 0 mm 1.79 m/s, 103° - -
1777763508 6.67° C 59% 1006.6 hPa 0 mm 1.34 m/s, 113° - -
1777763208 6.67° C 58% 1006.7 hPa 0 mm 2.24 m/s, 148° - -
1777762909 6.67° C 58% 1007.1 hPa 0 mm 1.79 m/s, 169° - -

* Rain latest hour (hover to see other rain measurements)
** Current wind speed in m/s (hover to see current wind gust speed)